| time (UTC) | temp C | wind direction | speed KPH | gust KPH | rain 1hr cm | rain 24hr cm | rain mn cm | humidity % | barometer mb |
| 20260506003009 | 26 | 139 | 14.5 | 20.9 | 0.00 | 0.00 | 0.00 | 86 | 1008.6 |
| 20260506001513 | 26 | 148 | 14.5 | 30.6 | 0.00 | 0.00 | 0.00 | 85 | 1008.6 |
| 20260506000017 | 26 | 160 | 16.1 | 32.2 | 0.00 | 0.00 | 0.00 | 85 | 1008.7 |
| 20260505234522 | 26 | 160 | 12.9 | 25.7 | 0.00 | 0.00 | 0.00 | 85 | 1008.6 |
| 20260505233025 | 26 | 153 | 11.3 | 24.1 | 0.00 | 0.00 | 0.00 | 85 | 1008.5 |
| 20260505231533 | 26 | 155 | 14.5 | 24.1 | 0.00 | 0.00 | 0.00 | 85 | 1008.6 |
| 20260505230037 | 26 | 138 | 11.3 | 25.7 | 0.00 | 0.00 | 0.00 | 85 | 1008.7 |
| 20260505224540 | 27 | 154 | 12.9 | 24.1 | 0.00 | 0.00 | 0.00 | 84 | 1008.8 |
| 20260505223050 | 27 | 194 | 16.1 | 25.7 | 0.00 | 0.00 | 0.00 | 84 | 1008.8 |
| 20260505221557 | 27 | 148 | 14.5 | 25.7 | 0.00 | 0.00 | 0.00 | 84 | 1008.9 |
| 20260505220057 | 27 | 180 | 11.3 | 25.7 | 0.00 | 0.00 | 0.00 | 84 | 1009.0 |
| 20260505214621 | 27 | 179 | 11.3 | 24.1 | 0.00 | 0.00 | 0.00 | 84 | 1009.1 |
| 20260505214501 | 27 | 105 | 9.7 | 24.1 | 0.00 | 0.00 | 0.00 | 84 | 1009.1 |
| 20260505213008 | 27 | 184 | 6.4 | 22.5 | 0.00 | 0.00 | 0.00 | 84 | 1009.4 |
| 20260505211509 | 27 | 192 | 9.7 | 29.0 | 0.00 | 0.00 | 0.00 | 84 | 1009.6 |
| 20260505210013 | 27 | 132 | 9.7 | 20.9 | 0.00 | 0.00 | 0.00 | 84 | 1009.9 |
| 20260505204525 | 27 | 165 | 6.4 | 17.7 | 0.00 | 0.00 | 0.00 | 84 | 1009.9 |
| 20260505203023 | 27 | 273 | 6.4 | 30.6 | 0.00 | 0.00 | 0.00 | 84 | 1010.2 |
| 20260505201525 | 27 | 259 | 11.3 | 25.7 | 0.00 | 0.00 | 0.00 | 85 | 1010.3 |
| 20260505200030 | 27 | 137 | 8.0 | 25.7 | 0.00 | 0.00 | 0.00 | 84 | 1010.3 |
| 20260505194531 | 27 | 252 | 1.6 | 25.7 | 0.00 | 0.00 | 0.00 | 86 | 1010.4 |
| 20260505193039 | 27 | 204 | 6.4 | 14.5 | 0.00 | 0.00 | 0.00 | 86 | 1010.6 |
| 20260505191546 | 27 | 252 | 9.7 | 19.3 | 0.00 | 0.00 | 0.00 | 86 | 1010.6 |
| 20260505190052 | 27 | 250 | 3.2 | 20.9 | 0.00 | 0.00 | 0.00 | 87 | 1010.7 |
| 20260505184601 | 27 | 233 | 4.8 | 17.7 | 0.00 | 0.00 | 0.00 | 87 | 1010.6 |
| 20260505183009 | 26 | 229 | 6.4 | 14.5 | 0.00 | 0.00 | 0.00 | 87 | 1011.0 |
| 20260505181510 | 26 | 143 | 9.7 | 20.9 | 0.00 | 0.00 | 0.00 | 87 | 1011.1 |
| 20260505180014 | 26 | 225 | 3.2 | 16.1 | 0.00 | 0.00 | 0.00 | 88 | 1011.1 |
| 20260505174520 | 26 | 184 | 8.0 | 20.9 | 0.00 | 0.00 | 0.00 | 88 | 1011.1 |
| 20260505173027 | 26 | 184 | 9.7 | 19.3 | 0.00 | 0.00 | 0.00 | 88 | 1011.2 |
| 20260505171533 | 26 | 211 | 6.4 | 16.1 | 0.00 | 0.00 | 0.00 | 88 | 1011.4 |
| 20260505170037 | 26 | 222 | 8.0 | 19.3 | 0.00 | 0.00 | 0.00 | 88 | 1011.4 |
| 20260505164548 | 26 | 221 | 9.7 | 19.3 | 0.00 | 0.00 | 0.00 | 88 | 1011.3 |
| 20260505163048 | 26 | 240 | 6.4 | 22.5 | 0.00 | 0.00 | 0.00 | 89 | 1011.3 |
| 20260505161603 | 25 | 227 | 6.4 | 17.7 | 0.00 | 0.00 | 0.00 | 89 | 1011.4 |
| 20260505153004 | 25 | 114 | 8.0 | 17.7 | 0.00 | 0.00 | 0.00 | 89 | 1011.1 |
| 20260505151506 | 25 | 132 | 3.2 | 22.5 | 0.00 | 0.00 | 0.00 | 90 | 1011.1 |
| 20260505124524 | 22 | 158 | 11.3 | 16.1 | 0.00 | 0.00 | 0.00 | 91 | 1010.8 |
| 20260505123009 | 22 | 134 | 9.7 | 14.5 | 0.00 | 0.00 | 0.00 | 91 | 1010.6 |
| 20260505121516 | 22 | 132 | 11.3 | 17.7 | 0.00 | 0.00 | 0.00 | 91 | 1010.3 |
| 20260505120028 | 22 | 135 | 11.3 | 17.7 | 0.00 | 0.00 | 0.00 | 90 | 1010.4 |
| 20260505114520 | 22 | 166 | 9.7 | 17.7 | 0.00 | 0.00 | 0.00 | 90 | 1010.4 |
| 20260505113024 | 22 | 135 | 9.7 | 16.1 | 0.00 | 0.00 | 0.00 | 90 | 1010.3 |
| 20260505111530 | 22 | 141 | 9.7 | 12.9 | 0.00 | 0.00 | 0.00 | 90 | 1010.3 |
| 20260505101553 | 22 | 222 | 3.2 | 9.7 | 0.00 | 0.00 | 0.00 | 89 | 1010.4 |
| 20260505100050 | 21 | 194 | 3.2 | 9.7 | 0.00 | 0.00 | 0.00 | 89 | 1010.6 |
| 20260505094559 | 21 | 148 | 6.4 | 11.3 | 0.00 | 0.00 | 0.00 | 89 | 1010.4 |
| 20260505093102 | 21 | 161 | 3.2 | 9.7 | 0.00 | 0.00 | 0.00 | 89 | 1010.6 |
| 20260505093002 | 21 | 158 | 4.8 | 9.7 | 0.00 | 0.00 | 0.00 | 89 | 1010.6 |
| 20260505091503 | 21 | 169 | 1.6 | 12.9 | 0.00 | 0.00 | 0.00 | 89 | 1010.8 |
| 20260505090017 | 21 | 161 | 3.2 | 11.3 | 0.00 | 0.00 | 0.00 | 89 | 1010.8 |
| 20260505084517 | 21 | 161 | 1.6 | 11.3 | 0.00 | 0.00 | 0.00 | 89 | 1010.8 |
| 20260505083022 | 21 | 136 | 9.7 | 16.1 | 0.00 | 0.00 | 0.00 | 90 | 1010.7 |
| 20260505081521 | 21 | 132 | 9.7 | 14.5 | 0.00 | 0.00 | 0.00 | 90 | 1010.8 |
| 20260505080024 | 21 | 132 | 9.7 | 14.5 | 0.00 | 0.00 | 0.00 | 89 | 1010.7 |
| 20260505074528 | 21 | 140 | 8.0 | 14.5 | 0.00 | 0.00 | 0.00 | 89 | 1011.1 |
| 20260505073025 | 20 | 132 | 9.7 | 17.7 | 0.00 | 0.00 | 0.00 | 89 | 1011.2 |
| 20260505071534 | 20 | 132 | 9.7 | 12.9 | 0.00 | 0.00 | 0.00 | 89 | 1011.3 |
| 20260505070031 | 20 | 125 | 9.7 | 16.1 | 0.00 | 0.00 | 0.00 | 89 | 1011.6 |
| 20260505064539 | 20 | 121 | 11.3 | 14.5 | 0.00 | 0.00 | 0.00 | 88 | 1011.7 |
| 20260505063049 | 20 | 131 | 9.7 | 14.5 | 0.00 | 0.00 | 0.00 | 88 | 1011.9 |
| 20260505061555 | 20 | 176 | 3.2 | 14.5 | 0.00 | 0.00 | 0.00 | 87 | 1012.4 |
| 20260505060054 | 20 | 138 | 8.0 | 12.9 | 0.00 | 0.00 | 0.00 | 88 | 1012.1 |
| 20260505054503 | 20 | 130 | 9.7 | 12.9 | 0.00 | 0.00 | 0.00 | 87 | 1012.3 |
| 20260505053006 | 20 | 114 | 9.7 | 14.5 | 0.00 | 0.00 | 0.00 | 87 | 1012.4 |
| 20260505051517 | 20 | 134 | 11.3 | 14.5 | 0.00 | 0.00 | 0.00 | 87 | 1012.6 |
| 20260505041506 | 20 | 121 | 9.7 | 14.5 | 0.00 | 0.00 | 0.00 | 85 | 1012.8 |
| 20260505040008 | 20 | 122 | 9.7 | 12.9 | 0.00 | 0.00 | 0.00 | 85 | 1012.8 |
| 20260505034512 | 21 | 126 | 9.7 | 12.9 | 0.00 | 0.00 | 0.00 | 84 | 1013.1 |
| 20260505033050 | 21 | 128 | 9.7 | 14.5 | 0.00 | 0.00 | 0.00 | 84 | 1013.0 |
| 20260505031558 | 21 | 130 | 9.7 | 14.5 | 0.00 | 0.00 | 0.00 | 83 | 1013.3 |
| 20260505030056 | 21 | 135 | 11.3 | 16.1 | 0.00 | 0.00 | 0.00 | 83 | 1013.0 |
| 20260505024606 | 22 | 134 | 11.3 | 16.1 | 0.00 | 0.00 | 0.00 | 82 | 1013.1 |
| 20260505023011 | 22 | 163 | 12.9 | 19.3 | 0.00 | 0.00 | 0.00 | 82 | 1013.0 |
| 20260505021513 | 22 | 146 | 11.3 | 22.5 | 0.00 | 0.00 | 0.00 | 81 | 1012.9 |
| 20260505020014 | 22 | 132 | 14.5 | 24.1 | 0.00 | 0.00 | 0.00 | 81 | 1012.8 |
| 20260505014521 | 22 | 143 | 14.5 | 24.1 | 0.00 | 0.00 | 0.00 | 81 | 1012.4 |
| 20260505013023 | 22 | 172 | 14.5 | 20.9 | 0.00 | 0.00 | 0.00 | 81 | 1012.5 |
| 20260505011541 | 23 | 135 | 12.9 | 22.5 | 0.00 | 0.00 | 0.00 | 80 | 1012.6 |
| 20260505010041 | 23 | 146 | 14.5 | 22.5 | 0.00 | 0.00 | 0.00 | 79 | 1012.6 |
| 20260505004552 | 23 | 150 | 14.5 | 24.1 | 0.00 | 0.00 | 0.00 | 78 | 1012.5 |